TimeCST,TemperatureF,Dew PointF,Humidity,Sea Level PressureIn,VisibilityMPH,Wind Direction,Wind SpeedMPH,Gust SpeedMPH,PrecipitationIn,Events,Conditions,WindDirDegrees,DateUTC
12:14 AM,-11.2,-20.2,64,30.27,10.0,Calm,Calm,-,N/A,,Clear,0,2013-12-30 06:14:00
12:34 AM,-11.2,-20.2,64,30.27,10.0,Calm,Calm,-,N/A,,Clear,0,2013-12-30 06:34:00
12:54 AM,-11.2,-18.4,70,30.26,10.0,Calm,Calm,-,N/A,,Clear,0,2013-12-30 06:54:00
1:14 AM,-9.4,-18.4,65,30.25,10.0,Calm,Calm,-,N/A,,Clear,0,2013-12-30 07:14:00
1:34 AM,-11.2,-20.2,64,30.25,10.0,Calm,Calm,-,N/A,,Clear,0,2013-12-30 07:34:00
1:54 AM,-11.2,-18.4,70,30.25,10.0,SSW,3.5,-,N/A,,Clear,210,2013-12-30 07:54:00
2:14 AM,-9.4,-18.4,65,30.25,10.0,Calm,Calm,-,N/A,,Clear,0,2013-12-30 08:14:00
2:34 AM,-9.4,-18.4,65,30.24,10.0,Calm,Calm,-,N/A,,Clear,0,2013-12-30 08:34:00
2:54 AM,-9.4,-18.4,65,30.24,10.0,Calm,Calm,-,N/A,,Clear,0,2013-12-30 08:54:00
3:14 AM,-9.4,-18.4,65,30.23,10.0,Calm,Calm,-,N/A,,Clear,0,2013-12-30 09:14:00
3:34 AM,-9.4,-18.4,65,30.23,10.0,Calm,Calm,-,N/A,,Clear,0,2013-12-30 09:34:00
3:54 AM,-9.4,-18.4,65,30.22,10.0,Calm,Calm,-,N/A,,Clear,0,2013-12-30 09:54:00
4:13 AM,-9.4,-18.4,65,30.22,10.0,Calm,Calm,-,N/A,,Clear,0,2013-12-30 10:13:00
4:34 AM,-9.4,-18.4,65,30.21,10.0,Calm,Calm,-,N/A,,Clear,0,2013-12-30 10:34:00
4:54 AM,-9.4,-18.4,65,30.21,10.0,Calm,Calm,-,N/A,,Clear,0,2013-12-30 10:54:00
5:14 AM,-7.6,-18.4,59,30.21,10.0,Calm,Calm,-,N/A,,Clear,0,2013-12-30 11:14:00
5:34 AM,-7.6,-16.6,65,30.21,10.0,Calm,Calm,-,N/A,,Clear,0,2013-12-30 11:34:00
5:54 AM,-7.6,-16.6,65,30.21,10.0,Calm,Calm,-,N/A,,Clear,0,2013-12-30 11:54:00
6:14 AM,-7.6,-16.6,65,30.21,10.0,SSE,3.5,-,N/A,,Clear,160,2013-12-30 12:14:00
6:34 AM,-7.6,-16.6,65,30.21,10.0,SSE,3.5,-,N/A,,Clear,160,2013-12-30 12:34:00
6:54 AM,-7.6,-16.6,65,30.21,10.0,Calm,Calm,-,N/A,,Clear,0,2013-12-30 12:54:00
7:14 AM,-5.8,-16.6,60,30.19,10.0,ESE,5.8,-,N/A,,Clear,120,2013-12-30 13:14:00
7:33 AM,-5.8,-16.6,60,30.19,10.0,SE,5.8,-,N/A,,Scattered Clouds,130,2013-12-30 13:33:00
7:54 AM,-5.8,-16.6,60,30.19,10.0,SSE,4.6,-,N/A,,Scattered Clouds,150,2013-12-30 13:54:00
8:14 AM,-4.0,-14.8,60,30.20,10.0,SSE,3.5,-,N/A,,Mostly Cloudy,150,2013-12-30 14:14:00
8:33 AM,-4.0,-14.8,60,30.20,10.0,SE,4.6,-,N/A,,Overcast,130,2013-12-30 14:33:00
8:54 AM,-2.2,-14.8,55,30.21,5.0,SE,4.6,-,N/A,,Haze,130,2013-12-30 14:54:00
9:14 AM,-2.2,-13.0,60,30.22,3.0,Calm,Calm,-,N/A,Snow,Light Snow,0,2013-12-30 15:14:00
9:34 AM,-0.4,-13.0,55,30.23,5.0,SSE,5.8,-,N/A,Snow,Light Snow,150,2013-12-30 15:34:00
9:54 AM,-0.4,-11.2,60,30.23,1.5,SSE,4.6,-,N/A,Snow,Light Snow,150,2013-12-30 15:54:00
10:14 AM,-0.4,-11.2,60,30.23,2.0,South,5.8,-,N/A,Snow,Light Snow,170,2013-12-30 16:14:00
10:34 AM,1.4,-9.4,61,30.22,1.5,SSE,8.1,-,N/A,Snow,Light Snow,150,2013-12-30 16:34:00
10:54 AM,1.4,-9.4,61,30.22,2.0,SSE,5.8,-,N/A,Snow,Light Snow,160,2013-12-30 16:54:00
11:14 AM,3.2,-7.6,61,30.20,2.5,SSE,6.9,-,N/A,Snow,Light Snow,150,2013-12-30 17:14:00
11:32 AM,3.2,-7.6,61,30.19,1.8,SE,6.9,-,N/A,Snow,Light Snow,130,2013-12-30 17:32:00
11:53 AM,3.2,-5.8,66,30.17,1.0,SSE,6.9,-,N/A,Snow,Light Snow,150,2013-12-30 17:53:00
12:14 PM,3.2,-5.8,66,30.15,1.2,SE,6.9,-,N/A,Snow,Light Snow,130,2013-12-30 18:14:00
12:31 PM,5.0,-5.8,61,30.14,1.8,ESE,5.8,-,N/A,Snow,Light Snow,120,2013-12-30 18:31:00
12:41 PM,5.0,-5.8,61,30.14,1.5,ESE,3.5,-,N/A,,Overcast,110,2013-12-30 18:41:00
1:01 PM,5.0,-5.8,61,30.13,1.2,ESE,2.3,-,N/A,,Overcast,110,2013-12-30 19:01:00
1:21 PM,6.8,-4.0,61,30.12,0.8,East,3.5,-,N/A,,Overcast,100,2013-12-30 19:21:00
1:41 PM,6.8,-4.0,61,30.13,0.5,East,3.5,-,N/A,,Overcast,90,2013-12-30 19:41:00
2:01 PM,6.8,-4.0,61,30.12,1.0,East,3.5,-,N/A,,Overcast,90,2013-12-30 20:01:00
2:21 PM,6.8,-4.0,61,30.13,0.8,ENE,5.8,-,N/A,,Overcast,70,2013-12-30 20:21:00
2:41 PM,6.8,-4.0,61,30.13,1.2,ENE,3.5,-,N/A,,Overcast,70,2013-12-30 20:41:00
3:01 PM,6.8,-4.0,61,30.14,1.0,ENE,4.6,-,N/A,,Overcast,70,2013-12-30 21:01:00
3:21 PM,6.8,-2.2,67,30.14,0.8,ENE,4.6,-,N/A,,Overcast,60,2013-12-30 21:21:00
3:41 PM,6.8,-4.0,61,30.13,0.8,East,6.9,-,N/A,,Overcast,100,2013-12-30 21:41:00
4:01 PM,6.8,-2.2,67,30.13,1.8,East,5.8,-,N/A,,Overcast,80,2013-12-30 22:01:00
4:21 PM,5.0,-4.0,66,30.14,4.0,ENE,5.8,-,N/A,,Overcast,70,2013-12-30 22:21:00
4:41 PM,5.0,-4.0,66,30.15,3.0,ENE,4.6,-,N/A,,Overcast,70,2013-12-30 22:41:00
5:01 PM,6.8,-2.2,67,30.15,3.0,ESE,3.5,-,N/A,,Overcast,110,2013-12-30 23:01:00
5:21 PM,6.8,-2.2,67,30.15,2.0,ESE,2.3,-,N/A,,Overcast,110,2013-12-30 23:21:00
5:41 PM,6.8,-2.2,67,30.16,1.8,SE,2.3,-,N/A,,Overcast,130,2013-12-30 23:41:00
6:01 PM,5.0,-4.0,66,30.15,2.0,SE,5.8,-,N/A,,Overcast,130,2013-12-31 00:01:00
6:21 PM,5.0,-4.0,66,30.17,2.5,SSW,1.2,-,N/A,,Overcast,210,2013-12-31 00:21:00
6:41 PM,3.2,-5.8,66,30.16,4.0,SSE,1.2,-,N/A,,Overcast,150,2013-12-31 00:41:00
7:01 PM,1.4,-5.8,72,30.17,5.0,Calm,Calm,-,N/A,,Overcast,160,2013-12-31 01:01:00
7:21 PM,-2.2,-9.4,71,30.19,7.0,NW,1.2,-,N/A,,Overcast,310,2013-12-31 01:21:00
7:41 PM,-4.0,-11.2,71,30.19,10.0,North,1.2,-,N/A,,Scattered Clouds,0,2013-12-31 01:41:00
8:01 PM,-5.8,-11.2,77,30.18,7.0,NNE,1.2,-,N/A,,Mostly Cloudy,20,2013-12-31 02:01:00
8:21 PM,-5.8,-14.8,65,30.18,10.0,Calm,Calm,-,N/A,,Mostly Cloudy,20,2013-12-31 02:21:00
8:41 PM,-9.4,-16.6,71,30.18,10.0,Calm,Calm,-,N/A,,Mostly Cloudy,310,2013-12-31 02:41:00
9:01 PM,-5.8,-11.2,77,30.18,7.0,NW,1.2,-,N/A,,Overcast,310,2013-12-31 03:01:00
9:21 PM,-2.2,-9.4,71,30.18,7.0,WNW,1.2,-,N/A,,Overcast,300,2013-12-31 03:21:00
9:41 PM,-0.4,-7.6,72,30.18,10.0,WSW,1.2,-,N/A,,Overcast,250,2013-12-31 03:41:00
10:01 PM,1.4,-7.6,66,30.18,10.0,Calm,Calm,-,N/A,,Overcast,210,2013-12-31 04:01:00
10:21 PM,-0.4,-7.6,72,30.18,10.0,SW,2.3,-,N/A,,Overcast,230,2013-12-31 04:21:00
10:41 PM,-0.4,-9.4,66,30.18,10.0,SW,1.2,-,N/A,,Scattered Clouds,220,2013-12-31 04:41:00
11:01 PM,-5.8,-14.8,65,30.18,10.0,Calm,Calm,-,N/A,,Clear,210,2013-12-31 05:01:00
11:41 PM,-7.6,-16.6,65,30.18,10.0,SW,1.2,-,N/A,,Clear,220,2013-12-31 05:41:00